Probability
0 0 0 0 0 0 0 0 0 0 0 0 0 0 0 0 0 0 0 0 0 0 0 0 0 0 0 0 0 0 0 0 0 0 0 0 0 0 0 0 0 0 0 0 0 0 0 0 0
0 0 0 0 0 0 0 0 0 0 0 0 0 0 0 0 0 0 0 0 0 0 0 0 0 0 0 0 0 0 0 0 0 0 0 0 0 0 0 0 0 0 0 0 0 0 0 0 0
0 0 0 0 0 0 0 0 0 0 0 0 0 0 0 0 0 0 0 0 0 0 0 0 0 0 0 0 0 0 0 0 0 0 0 0 0 0 0 0 0 0 0 0 0 0 0 0 0
0 0 0 0 0 0 0 0 0 0 0 0 0 0 0 0 0 0 0 0 0 0 0 0 0 0 0 0 0 0 0 0 0 0 0 0 0 0 0 0 0 0 0 0 0 0 0 0 0
0 0 0 0 0 0 0 0 0 0 0 0 0 0 0 0 0 0 0 0 0 0 0 0 0 0 0 0 0 0 0 0 0 0 0 0 0 0 0 0 0 0 0 0 0 0 0 0 0
0 0 0 0 0 0 0 0 0 0 0 0 0 0 0 1 1 1 0 0 0 0 0 0 0 0 0 0 0 0 0 0 0 0 0 0 0 0 0 0 0 0 0 0 0 0 0 0 0
0 0 0 0 0 0 0 0 0 0 0 0 0 0 0 2 2 1 0 0 0 0 0 0 0 0 0 1 0 0 0 0 0 0 0 0 0 0 0 0 0 0 0 0 0 0 0 0 0
0 0 0 0 0 0 0 0 0 0 0 0 0 0 0 1 1 1 0 0 0 0 0 0 0 0 0 0 0 0 0 0 0 0 0 0 0 0 0 0 0 0 0 0 0 0 0 0 0
0 0 0 0 0 0 0 0 0 0 0 0 0 0 0 1 1 0 0 0 0 0 0 0 0 0 0 0 0 0 0 0 0 0 0 0 0 0 0 0 0 0 0 0 0 0 0 0 0
0 0 0 0 0 0 0 0 0 0 0 0 0 0 0 1 1 0 0 0 0 0 0 0 0 0 0 0 0 0 0 0 0 0 0 0 0 0 0 0 0 0 0 0 0 0 0 0 0
0 0 0 0 0 0 0 0 0 0 0 0 0 1 3 2 1 0 0 0 0 0 0 0 0 0 0 0 0 0 0 0 0 0 0 0 0 0 0 0 0 0 0 0 0 0 0 0 0
0 0 0 0 0 0 0 0 0 0 0 0 0 4 7 4 1 0 0 0 0 0 0 0 0 0 0 0 0 0 0 0 0 0 0 0 0 0 0 0 0 0 0 0 0 0 0 0 0
0 0 0 0 0 0 0 0 0 0 0 0 2 6 9 5 1 1 1 1 0 0 0 0 0 0 0 0 0 0 0 0 0 0 0 0 0 0 0 0 0 0 0 0 0 0 0 0 0
0 0 0 0 0 0 0 0 0 0 0 0 2 6 6 4 4 6 8 5 2 0 0 0 0 0 0 0 0 0 0 0 0 0 0 0 0 0 0 0 0 0 0 0 0 0 0 0 0
0 0 0 0 0 0 0 0 0 0 0 0 1 3 6 6 8 16 21 15 4 0 1 0 0 0 0 0 0 0 0 0 0 0 0 0 0 0 0 0 0 0 0 0 0 0 0 1 1
0 0 0 0 0 0 0 0 0 0 0 0 1 4 10 14 20 34 43 30 10 2 2 1 1 2 3 5 5 5 5 4 2 0 0 0 0 0 0 0 0 0 0 0 0 0 2 3 4
0 0 0 0 0 0 0 0 0 0 0 1 4 9 21 32 43 60 66 48 23 11 9 10 13 16 20 22 20 15 12 8 3 0 0 0 0 0 0 0 0 0 0 0 0 1 3 4 4
0 0 0 0 0 0 0 0 0 0 0 3 9 21 38 56 69 78 77 63 45 32 28 31 38 42 43 40 33 22 12 6 2 0 0 0 0 0 0 0 0 0 0 0 0 0 1 2 2
0 0 0 0 0 0 0 0 0 0 0 4 14 32 57 77 85 84 80 75 68 60 57 58 60 58 54 48 35 18 6 1 0 0 0 0 0 0 0 0 0 0 0 0 0 0 0 0 0
0 0 0 0 0 0 0 0 0 0 0 3 13 36 67 88 91 87 84 85 85 82 79 77 70 60 51 42 27 10 1 0 0 0 0 0 0 0 0 0 0 0 0 0 0 0 0 0 0
0 0 0 0 0 0 0 0 0 0 0 2 9 33 67 91 93 87 85 87 88 86 81 77 70 57 41 26 14 5 0 0 0 0 0 0 0 0 0 0 0 0 0 0 0 0 0 0 0
0 0 0 0 0 0 0 0 0 0 0 1 5 25 60 88 95 90 82 77 73 67 62 59 53 42 27 13 4 2 0 0 0 0 0 0 0 0 0 0 0 0 0 0 0 0 0 0 0
0 0 0 0 0 0 0 0 0 0 0 0 5 23 55 85 96 90 76 60 48 39 35 33 30 23 14 6 2 1 0 0 0 0 0 0 0 0 0 0 0 0 0 0 0 0 0 0 0
0 0 0 0 0 0 0 0 0 0 0 0 7 28 57 82 90 77 55 37 25 17 14 14 13 9 5 2 1 0 0 0 0 0 0 0 0 0 0 0 0 0 0 0 0 0 0 0 0
0 0 0 0 0 0 0 0 0 0 0 1 10 36 65 82 77 52 26 14 9 6 4 4 3 2 0 0 0 0 0 0 0 0 0 0 0 0 0 0 0 0 0 0 0 0 0 0 0
0 0 0 0 0 0 0 0 0 0 0 1 13 43 72 80 62 31 9 3 2 1 0 0 0 0 0 0 0 0 0 0 0 0 0 0 0 0 0 0 0 0 0 0 0 0 0 0 0
0 0 0 0 0 0 0 0 0 0 0 2 17 51 78 74 45 16 2 0 0 0 0 0 0 0 0 0 0 0 0 0 0 0 0 0 0 0 0 0 0 0 0 0 0 0 0 0 0
0 0 0 0 0 0 0 0 0 0 0 2 21 57 79 65 32 7 0 0 0 0 0 0 0 0 0 0 0 0 0 0 0 0 0 0 0 0 0 0 0 0 0 0 0 0 0 0 0
0 0 0 0 0 0 0 0 0 0 0 2 23 60 77 56 23 4 0 0 0 0 0 0 0 0 0 0 0 0 0 0 0 0 0 0 0 0 0 0 0 0 0 0 0 0 0 0 0
0 0 0 0 0 0 0 0 0 0 0 2 23 61 76 51 18 2 0 0 0 0 0 0 0 0 0 0 0 0 0 0 0 0 0 0 0 0 0 0 0 0 0 0 0 0 0 0 0
Wind_Speed
11 8 6 6 8 9 5 3 2 5 5 5 4 3 4 5 6 6 7 9 8 10 14 15 12 12 12 11 11 12 13 14 13 13 12 11 10 9 7 7 6 5 5 5 4 4 5 6 6
7 5 6 7 9 8 6 5 6 5 7 7 6 3 1 4 5 6 9 10 10 10 11 13 14 12 12 12 12 13 13 13 12 12 11 9 8 7 6 5 4 3 3 3 3 4 5 5 5
6 6 6 7 8 3 6 5 6 8 8 6 5 2 2 4 5 7 9 11 12 10 10 12 13 12 13 13 12 12 11 11 11 10 9 7 6 5 3 2 2 2 2 3 3 3 4 4 4
6 7 6 9 8 0 2 5 7 10 8 5 6 6 5 5 4 8 12 13 13 11 10 13 11 12 12 12 12 11 11 10 10 9 8 7 5 4 2 1 2 3 3 3 3 4 5 5 5
7 6 9 10 5 2 2 3 8 10 9 7 5 5 7 6 6 11 12 12 11 11 10 13 10 11 11 11 11 10 10 10 9 8 8 7 6 4 3 3 3 4 4 5 6 7 7 6 5
7 7 9 8 6 4 5 7 9 8 9 9 7 6 8 8 9 11 13 11 11 10 10 12 10 9 10 10 9 9 9 9 8 8 7 7 7 5 4 3 3 4 6 7 7 6 5 5 4
9 8 8 3 6 6 4 7 11 9 9 10 8 6 8 9 10 12 12 10 10 10 9 10 12 11 10 9 9 9 9 8 8 7 8 7 6 5 4 4 5 5 6 6 5 5 4 4 4
7 6 8 6 6 7 6 8 8 9 8 7 7 6 7 13 12 12 12 10 9 9 8 8 8 10 11 11 11 10 9 8 8 7 7 6 6 6 5 6 7 5 5 5 5 4 4 4 4
7 9 7 4 3 6 7 9 8 6 8 9 8 2 6 17 16 14 13 11 10 9 8 8 8 8 8 9 11 10 9 7 8 8 8 6 5 5 6 8 7 5 6 5 5 4 3 2 6
8 10 4 1 2 2 2 7 12 11 12 11 10 6 10 17 16 16 15 14 13 11 9 9 8 9 8 7 8 6 7 7 5 5 6 4 3 1 3 10 7 7 6 6 5 3 5 8 4
8 8 0 3 4 5 4 8 12 12 11 12 14 14 15 17 16 15 14 13 12 12 10 9 8 7 7 6 5 4 4 4 5 5 4 2 3 3 3 4 7 6 6 5 6 7 3 2 2
9 8 7 6 5 6 4 7 11 12 9 8 12 15 19 19 17 15 14 14 13 13 11 9 9 7 6 5 5 4 4 4 4 5 3 3 2 2 2 2 1 2 2 0 3 2 2 3 4
14 10 8 9 10 8 6 7 7 10 6 4 9 16 20 19 17 14 13 13 13 12 11 10 9 9 7 5 4 4 4 4 4 3 3 2 3 2 2 1 2 4 3 3 3 4 3 5 6
8 9 9 10 8 4 6 7 9 5 5 8 12 17 19 18 17 15 13 13 12 11 10 10 10 10 9 6 5 4 4 3 3 3 2 2 2 1 2 2 2 3 3 4 5 5 4 5 5
7 10 12 10 7 4 6 10 9 3 6 10 14 15 17 17 16 15 14 12 12 11 10 10 10 10 9 8 7 5 4 4 2 2 2 0 1 1 1 1 1 2 3 2 3 4 4 4 5
10 12 14 10 6 4 10 14 7 3 8 11 12 13 15 16 17 13 11 9 9 10 10 10 9 11 9 6 5 4 3 3 3 3 4 5 5 3 1 2 3 3 3 3 3 5 6 5 6
13 16 17 12 5 5 10 11 6 3 9 10 11 12 14 15 14 11 10 9 8 8 9 10 9 10 9 8 6 6 5 5 5 5 5 6 6 5 4 4 5 3 4 4 5 5 6 6 6
13 15 16 16 7 7 11 11 4 5 10 11 11 12 14 16 14 10 9 9 8 8 8 9 10 10 10 8 7 7 8 7 7 7 7 8 7 7 5 5 6 5 4 4 5 4 3 4 5
9 11 13 12 6 10 13 13 9 6 10 12 12 13 15 16 13 11 10 9 9 9 9 9 10 10 8 8 8 7 7 7 7 8 9 8 8 7 6 5 5 4 4 4 4 4 5 6 5
13 14 15 13 7 9 13 15 11 9 11 11 12 14 15 15 14 12 10 9 9 9 10 10 11 10 8 7 7 7 8 8 8 7 7 7 7 6 5 5 3 3 2 2 4 5 7 7 5
15 15 15 14 11 10 12 18 17 11 11 11 13 15 17 18 16 14 12 11 11 11 10 9 11 10 10 11 9 9 9 7 6 6 5 5 5 5 4 3 3 3 5 4 5 6 6 7 7
15 14 14 15 15 14 10 14 15 12 12 13 14 16 18 18 17 15 14 13 12 12 11 12 12 12 11 11 10 10 8 7 5 4 4 3 3 3 3 3 4 4 5 4 5 5 6 5 6
14 10 12 14 15 16 13 13 14 9 13 15 16 16 17 18 17 16 15 14 13 13 13 13 13 13 12 11 12 11 9 7 5 4 4 2 2 2 4 4 4 3 3 5 5 5 6 6 6
10 8 10 13 14 18 17 16 15 11 12 12 13 15 15 15 15 15 14 14 14 13 13 13 14 13 12 11 10 10 10 8 6 4 2 1 1 1 4 3 3 3 4 3 4 4 4 4 5
11 11 10 12 14 16 15 14 13 10 8 8 6 12 13 14 15 15 16 15 15 14 14 13 13 11 10 10 9 9 9 8 6 2 3 1 1 1 2 3 3 4 3 4 4 4 4 4 4
14 16 13 12 12 11 9 11 10 4 3 4 6 11 15 16 16 16 17 16 16 15 14 13 12 11 10 9 9 8 7 5 5 4 2 2 2 2 3 3 4 4 5 5 4 6 5 5 6
17 16 18 17 18 16 13 13 7 9 11 10 11 14 17 17 16 17 17 16 16 15 13 12 11 11 10 9 9 8 7 6 6 4 1 1 2 3 3 4 5 5 6 6 7 7 7 7 9
18 15 10 13 17 18 17 17 13 11 11 11 12 15 15 16 16 17 16 16 14 12 11 11 11 11 10 9 7 6 7 5 4 1 3 3 3 3 5 5 6 6 7 7 8 9 8 9 10
16 16 14 14 14 16 16 13 7 7 6 7 12 16 17 17 17 17 16 15 13 12 12 11 11 10 9 8 7 6 5 3 1 1 2 2 4 4 6 6 7 8 9 9 9 11 12 13 13
10 14 15 15 15 15 15 14 2 3 6 8 10 15 17 17 17 17 17 15 13 12 11 10 10 9 8 7 6 5 3 1 1 1 3 4 5 6 7 8 9 10 11 11 12 14 14 15 16
Wind_Direction
181 199 234 244 242 234 232 140 173 144 115 88 77 60 10 9 358 45 103 139 141 143 136 147 152 152 149 143 138 132 130 128 126 125 124 124 125 127 131 136 138 138 133 128 119 106 95 91 86
178 198 231 241 253 223 156 142 160 108 99 123 121 124 88 72 54 91 131 141 153 146 147 148 146 153 152 153 152 148 143 138 133 129 127 126 127 130 135 140 143 144 135 121 107 98 95 94 87
189 224 251 247 248 264 109 136 125 111 132 156 139 119 59 58 94 117 122 142 150 146 144 127 153 158 159 161 159 153 147 141 135 132 129 129 131 132 133 133 124 106 93 85 81 81 89 87 78
204 212 234 248 233 135 43 119 128 138 147 156 153 133 99 69 102 123 133 146 147 143 146 135 162 163 163 164 160 154 149 147 145 145 145 145 148 148 144 137 114 103 103 102 96 96 99 93 80
233 238 234 233 220 148 186 161 161 152 151 159 176 147 121 100 110 129 141 144 142 144 144 140 158 160 162 164 161 156 151 150 152 155 156 157 160 162 156 133 112 107 109 106 102 101 97 88 73
221 233 236 211 156 158 173 183 183 162 156 167 185 159 114 124 139 146 145 152 143 143 145 134 144 155 157 158 156 153 151 151 154 155 153 151 150 150 148 135 123 117 112 110 107 104 100 94 84
245 241 250 208 154 145 122 172 185 174 171 174 184 166 129 147 147 154 150 151 144 147 143 145 150 153 151 146 147 150 152 153 153 149 143 139 140 142 143 137 127 121 119 114 108 99 90 78 62
261 259 229 195 174 120 125 160 185 183 168 154 184 194 148 155 156 159 157 153 147 141 135 141 151 150 157 153 146 149 147 145 142 136 129 131 145 146 142 153 113 112 111 103 95 85 79 79 76
249 247 206 157 160 113 140 161 155 174 158 176 198 194 111 145 159 165 162 162 156 149 146 151 158 160 159 146 144 152 147 139 154 148 137 185 180 149 160 84 93 106 111 109 104 97 101 189 166
235 245 162 66 340 0 161 175 153 174 179 190 192 160 140 153 167 175 173 172 169 159 162 164 165 164 160 142 151 161 167 155 179 143 159 178 118 102 85 109 106 113 125 142 127 150 206 239 209
230 253 198 262 308 305 238 184 172 188 194 200 198 179 163 170 177 182 177 176 171 161 170 164 162 169 151 152 161 158 152 142 156 140 153 143 174 169 179 162 158 162 185 190 159 208 223 275 332
239 249 263 285 312 286 258 191 191 211 222 206 203 177 170 179 184 185 181 177 172 168 169 163 158 162 165 152 150 162 155 152 150 140 196 180 187 209 171 220 174 212 201 250 271 264 239 276 273
235 248 257 267 281 285 247 204 209 219 228 215 188 176 182 185 184 182 180 175 174 171 170 166 164 156 159 157 162 160 151 158 142 160 170 236 223 222 208 234 283 291 309 266 275 294 294 282 264
243 248 257 268 277 246 221 187 208 200 208 202 189 189 191 188 183 176 176 176 176 173 173 159 167 165 165 166 165 163 162 161 165 173 167 240 279 290 271 250 281 306 317 340 324 322 303 291 309
259 254 245 235 241 226 220 198 203 153 201 205 202 200 195 190 184 181 177 177 175 173 167 163 169 166 170 169 169 172 165 170 161 123 112 60 352 40 279 319 288 9 350 335 311 318 303 297 296
232 238 239 202 208 209 235 219 160 171 205 211 211 203 195 189 187 179 166 172 174 173 166 169 167 164 163 160 162 152 133 115 99 89 81 62 54 51 8 34 41 16 356 351 351 329 321 322 310
222 234 235 205 175 225 242 240 131 215 217 221 215 206 196 188 188 162 149 161 169 170 167 167 159 159 153 140 133 110 95 86 86 81 77 74 66 59 51 47 39 12 16 10 354 4 336 323 320
231 237 237 238 181 251 245 245 207 235 232 227 218 209 196 191 181 152 145 148 153 157 161 155 149 142 138 132 121 108 97 92 85 81 77 76 73 62 55 67 41 18 24 20 17 356 342 317 309
269 259 252 249 256 266 255 253 239 235 236 230 221 211 199 193 164 148 153 152 147 147 149 148 141 140 147 144 141 127 111 100 89 79 74 73 69 67 50 54 54 28 40 15 347 326 296 278 296
240 245 251 253 240 267 266 258 245 234 240 239 229 215 204 184 161 160 162 159 148 140 137 137 138 144 149 131 115 109 107 94 85 80 74 72 70 64 68 51 35 25 333 312 329 323 311 307 304
235 246 256 261 261 245 261 256 239 219 233 236 233 223 208 191 177 170 168 159 147 138 136 130 129 134 129 128 121 119 113 114 107 102 94 79 77 71 56 41 5 338 310 349 338 331 329 323 313
241 240 255 262 262 259 240 269 245 213 222 227 224 218 211 194 183 177 169 159 148 137 131 126 125 122 126 133 131 132 129 124 124 131 123 108 66 47 37 19 17 355 355 11 333 24 327 322 320
248 261 251 252 257 264 250 257 264 219 235 232 220 214 208 194 183 178 168 155 142 136 130 126 122 119 120 119 123 127 128 130 136 135 123 133 107 45 27 29 28 12 8 18 359 352 338 328 333
240 243 247 248 251 250 249 254 260 234 235 245 214 205 202 189 171 163 153 143 137 133 129 127 124 122 127 130 131 131 130 131 131 143 152 216 89 58 53 27 13 351 360 358 344 332 330 345 339
218 229 234 229 227 244 242 247 260 264 260 269 224 191 185 175 161 153 148 143 140 138 134 132 130 131 133 129 125 124 125 131 131 134 107 6 3 22 66 352 337 342 344 324 324 308 327 313 312
221 232 250 266 263 261 219 235 259 243 251 259 221 182 175 172 163 156 152 147 145 143 141 142 140 137 135 127 122 120 124 116 105 93 60 58 336 349 359 311 317 322 315 307 307 294 291 298 295
241 237 249 261 268 274 269 264 251 239 237 227 203 180 176 171 159 154 152 149 149 149 150 148 139 135 132 126 123 116 104 90 91 106 145 2 352 325 319 307 300 302 302 302 295 286 289 287 285
249 251 248 246 256 263 263 259 254 249 241 222 203 186 175 163 155 154 153 152 152 151 147 140 137 134 130 126 117 111 106 102 101 51 36 6 344 347 322 309 301 294 294 293 290 288 287 290 286
225 234 237 250 255 264 270 271 292 257 263 247 206 183 170 161 156 155 154 153 151 148 145 140 136 134 126 116 108 102 96 92 76 21 347 338 330 322 308 307 301 295 291 289 287 285 290 286 288
265 243 240 250 257 258 269 278 354 257 273 256 210 173 162 159 157 156 153 150 152 151 144 138 135 129 123 115 110 101 92 74 342 347 334 314 301 298 300 296 291 288 288 288 286 287 289 290 292